Flag for Denmark Weather past 2 weeks in Skagen, Denmark

Now
43 °F

Clear.


Feels Like: 40 °F
Forecast: 58 / 64 °F
Wind: 5 mph from Northeast

Location: Gothenburg / Save

Current Time: Sep 16, 2014 at 7:52:05 AM

Latest Report: Sep 16, 2014 at 7:20 AM


Visibility: 10 mi

Pressure: 30.33 "Hg

Humidity: 93%

Dew point: 41 °F

Location of SkagenLocation

Historic Weather in Skagen — Graph

°F

Skagen temperature yesterday

Maximum temperature yesterday: 68 °F (at 2:50 PM)
Minimum temperature yesterday: 46 °F (at 5:20 AM)
Average temperature yesterday: 57 °F

Past Weeks' High & Low Weather Summary

 TemperatureHumidityPressure
High73 °F (Sep 6, 3:20 PM)100% (Sep 1, 6:50 AM)30.39 "Hg (Sep 1, 6:50 AM)
Low43 °F (Sep 5, 6:50 AM)44% (Sep 6, 3:20 PM)29.71 "Hg (Sep 9, 4:50 AM)
Average57 °F81%30.16 "Hg
* Reported Sep 1 6:20 AM — Sep 16 6:20 AM, Skagen, Weather by CustomWeather, © 2014

Note: Actual official high and low records may vary slightly from our data, if they occured in-between our weather recording intervals... More about our weather records

Advertising

Skagen weather history for previous 24 hours

 ConditionsComfort  
Time TempWeatherWind HumidityBarometerVisibility
6:20 AM
Sep 16
43 °FClear.2 mph93%30.33 "Hg10 mi
5:50 AM43 °FClear.3 mph100%30.33 "Hg10 mi
5:20 AM43 °FClear.5 mph93%30.33 "Hg10 mi
4:50 AM43 °FClear.3 mph100%30.33 "Hg10 mi
4:20 AM45 °FClear.6 mph93%30.33 "Hg10 mi
3:50 AM45 °FClear.6 mph93%30.33 "Hg10 mi
3:20 AM48 °FClear.8 mph87%30.33 "Hg10 mi
2:50 AM46 °FClear.6 mph93%30.33 "Hg10 mi
2:20 AM48 °FClear.5 mph87%30.33 "Hg10 mi
1:50 AM50 °FClear.6 mph82%30.33 "Hg10 mi
1:20 AM50 °FClear.7 mph82%30.33 "Hg10 mi
12:50 AM52 °FClear.6 mph82%30.36 "Hg10 mi
12:20 AM54 °FClear.5 mph77%30.36 "Hg10 mi
11:50 PM
Sep 15
54 °FClear.5 mph77%30.33 "Hg10 mi
11:20 PM54 °FClear.3 mph77%30.33 "Hg10 mi
10:50 PM54 °FClear.5 mph82%30.33 "Hg10 mi
10:20 PM54 °FClear.3 mph82%30.33 "Hg10 mi
9:50 PM54 °FClear.3 mph82%30.33 "Hg10 mi
9:20 PM54 °FClear.6 mph77%30.33 "Hg10 mi
8:50 PM57 °FClear.6 mph77%30.33 "Hg10 mi
7:50 PM59 °FSunny.5 mph72%30.30 "Hg10 mi
7:20 PM61 °FSunny.5 mph68%30.30 "Hg10 mi
6:50 PM63 °FSunny.6 mph64%30.30 "Hg10 mi
6:20 PM64 °FSunny.7 mph64%30.30 "Hg10 mi
5:50 PM66 °FSunny.8 mph56%30.30 "Hg10 mi
5:20 PM68 °FSunny.9 mph49%30.30 "Hg10 mi
4:20 PM68 °FSunny.10 mph46%30.30 "Hg10 mi
3:50 PM68 °FSunny.10 mph46%30.33 "Hg10 mi
3:20 PM68 °FSunny.10 mph46%30.33 "Hg10 mi
2:50 PM68 °FPassing clouds.10 mph49%30.33 "HgN/A
2:20 PM66 °FSunny.14 mph52%30.33 "Hg10 mi
1:56 PM66 °FSunny.9 mph52%30.33 "Hg10 mi
1:20 PM66 °FSunny.9 mph56%30.36 "Hg10 mi
12:50 PM64 °FSunny.10 mph56%30.36 "Hg10 mi
12:20 PM63 °FSunny.10 mph59%30.36 "Hg10 mi
11:50 AM63 °FPassing clouds.9 mph59%30.36 "HgN/A
11:20 AM61 °FPassing clouds.8 mph63%30.36 "HgN/A
10:20 AM59 °FSunny.8 mph68%30.36 "Hg10 mi
9:50 AM57 °FSunny.8 mph72%30.36 "Hg10 mi
9:20 AM55 °FSunny.8 mph77%30.36 "Hg10 mi
8:50 AM55 °FSunny.8 mph77%30.36 "Hg10 mi
8:20 AM52 °FPassing clouds.3 mph94%30.36 "HgN/A
7:50 AM50 °FPassing clouds.6 mph94%30.36 "HgN/A
7:20 AM46 °FClear.6 mph100%30.36 "Hg10 mi
Weather by CustomWeather, © 2014

See weather overviewHow to use our weather pages